Weather Roundup
Issued by NWS

Home | Current Version | Previous Version | Text Only | Print | Product List | Glossary On
Versions: 1 2 3 4 5 6 7 8 9 10 11 12 13 14 15 16 17 18 19 20 21 22 23 24 25 26 27 28 29 30 31 32 33 34 35 36 37 38 39 40 41 42 43 44 45 46 47 48 49 50
743
NZUS93 KARX 241559
HRRWXR

CURRENT HOURLY OBSERVATIONS ACROSS
MUCH OF THE UPPER MISSISSIPPI VALLEY
NATIONAL WEATHER SERVICE LA CROSSE WI
1000 AM CST TUE JAN 24 2017


...SOUTHEAST MINNESOTA...


CITY           SKY/WX    TMP DP  RH WIND       PRES   REMARKS
ROCHESTER      CLOUDY    30  28  92 NE3       29.86F FOG
ROCHESTER/MAYO CLOUDY    32  28  88 N3        29.87S
WINONA         CLOUDY    34  30  86 CALM      29.89F
AUSTIN         CLOUDY    30  27  86 NE3       29.86S
ALBERT LEA     CLOUDY    30  28  93 E6        29.86S WCI  24
DODGE CENTER   CLOUDY    30  28  93 MISG      29.86S FOG
PRESTON        CLOUDY    29  26  86 E5        29.87S WCI  24
OWATONNA       CLOUDY    30  27  86 CALM      29.87S FOG
FARIBAULT      NOT AVBL
$$

...ELSEWHERE IN MINNESOTA...


CITY           SKY/WX    TMP DP  RH WIND       PRES   REMARKS
MINNEAPOLIS    CLOUDY    32  25  75 NE7       29.88F WCI  26
INTNL FALLS    CLOUDY    27  21  78 W7        29.87R WCI  19
DULUTH         CLOUDY    30  25  81 NW9       29.85S WCI  22
RED WING       CLOUDY    34  27  75 NE6       29.88F WCI  29
REDWOOD FALLS  CLOUDY    31  26  82 E6        29.86F WCI  25
MANKATO        CLOUDY    31  27  85 E8        29.88S WCI  23
WORTHINGTON    CLOUDY    29  28  96 E16       29.80S WCI  17
FAIRMONT       CLOUDY    31  28  89 E9        29.85S WCI  23
$$

...SOUTHWEST WISCONSIN...


CITY           SKY/WX    TMP DP  RH WIND       PRES   REMARKS
LA CROSSE      CLOUDY    36  31  82 CALM      29.88F
PRAIRIE DU CHI CLOUDY    34  32  92 CALM      29.89S
BOSCOBEL       CLOUDY    36  32  85 SW3       29.89S
LONE ROCK      NOT AVBL
PLATTEVILLE    CLOUDY    33  33 100 CALM      29.88S
FORT MC COY    CLOUDY    32  32 100 CALM      29.89F FOG
MAUSTON-NEW LI CLOUDY    34  32  92 N3        29.86F FOG
VIROQUA        CLOUDY    33  33 100 CALM      29.86R
WIS DELLS      CLOUDY    35  31  87 CALM      29.87F
$$

...ELSEWHERE IN WISCONSIN...


CITY           SKY/WX    TMP DP  RH WIND       PRES   REMARKS
MILWAUKEE      CLOUDY    38  33  82 NW7       29.88S WCI  33
MADISON        CLOUDY    36  31  82 N3        29.88F
GREEN BAY      CLOUDY    39  36  89 W7        29.86R WCI  34
EAU CLAIRE     NOT AVBL
BLACK RVR FLS  CLOUDY    34  33  99 CALM      29.88S
MEDFORD        CLOUDY    32  30  94 NW6       29.85S WCI  26
WAUSAU         CLOUDY    34  29  82 NW8       29.84F WCI  27
WIS RAPIDS     PTSUNNY   35  31  85 NW3       29.88S
MARSHFIELD     CLOUDY    34  30  85 NW6       29.85S WCI  29
RICE LAKE      CLOUDY    32  31  97 CALM      29.89S
$$

...NORTHEAST IOWA...


CITY           SKY/WX    TMP DP  RH WIND       PRES   REMARKS
WATERLOO       CLOUDY    32  27  81 NE9       29.86F WCI  24
DUBUQUE        CLOUDY    32  28  85 NE3       29.88S
DECORAH        CLOUDY    32  28  86 CALM      29.86S
MASON CITY     CLOUDY    30  27  88 E7        29.86F WCI  23
CHARLES CITY   CLOUDY    30  30 100 E6        29.87S WCI  24
OELWEIN        CLOUDY    32  30  93 E8        29.87S WCI  25
$$

...ELSEWHERE IN IOWA...


CITY           SKY/WX    TMP DP  RH WIND       PRES   REMARKS
DES MOINES     CLOUDY    32  29  88 SE9       29.84R WCI  24
IOWA CITY      CLOUDY    33  28  81 E6        29.90S WCI  28
FORT DODGE     CLOUDY    30  27  86 E13       29.83R WCI  20
MARSHALLTOWN   CLOUDY    32  29  88 E12       29.84S WCI  23
CEDAR RAPIDS   CLOUDY    31  28  89 E8        29.86S FOG     WCI  23
$$

...NORTHERN ILLINOIS...


CITY           SKY/WX    TMP DP  RH WIND       PRES   REMARKS
CHICAGO-OHARE  CLOUDY    35  31  85 VRB5      29.89R WCI  31
CHICAGO-MIDWAY CLOUDY    37  30  75 NW9       29.89S WCI  30
MOLINE         CLOUDY    36  30  79 E5        29.89F WCI  32
ROCKFORD       CLOUDY    36  30  79 N3        29.91R
PEORIA         CLOUDY    37  33  85 CALM      29.91S
$$

NOTE: "FAIR" INDICATES FEW OR NO CLOUDS BELOW 12,000 FEET WITH NO
SIGNIFICANT WEATHER AND/OR OBSTRUCTIONS TO VISIBILITY. WIND
SPEEDS ARE IN MILES-PER-HOUR.




USA.gov is the U.S. government's official web portal to all federal, state and local government web resources and services.